Flag for U.S.A. Weather past 2 weeks in Los Angeles, California, U.S.A.

Now
61 °F

Light rain. Overcast.


Feels Like: 61 °F
Forecast: 57 / 70 °F
Wind: 5 mph from East

Location: Los Angeles / USC Campus Downtown

Current Time: Jan 30, 2015 at 8:27:02 AM

Latest Report: Jan 30, 2015 at 7:47 AM


Visibility: 10 mi

Pressure: 29.92 "Hg

Humidity: 75%

Dew point: 53 °F

Location of Los AngelesLocation

Historic Weather in Los Angeles — Graph

°F

Los Angeles temperature yesterday

Maximum temperature yesterday: 74 °F (at 11:47 AM)
Minimum temperature yesterday: 61 °F (at 2:47 AM)
Average temperature yesterday: 66 °F

Past Weeks' High & Low Weather Summary

 TemperatureHumidityPressure
High82 °F (Jan 25, 1:47 PM)97% (Jan 20, 2:47 AM)30.26 "Hg (Jan 20, 2:47 AM)
Low48 °F (Jan 22, 4:47 AM)10% (Jan 23, 12:47 PM)29.90 "Hg (Jan 30, 5:47 AM)
Average62 °F52%30.09 "Hg
* Reported Jan 15 6:47 AM — Jan 30 6:47 AM, Los Angeles, Weather by CustomWeather, © 2014

Note: Actual official high and low records may vary slightly from our data, if they occured in-between our weather recording intervals... More about our weather records

Advertising

Los Angeles weather history for previous 24 hours

 ConditionsComfort  
Time TempWeatherWind HumidityBarometerVisibility
6:47 AM
Jan 30
62 °FLight rain. Overcast.No wind65%29.91 "Hg10 mi
5:47 AM62 °FMostly cloudy.No wind67%29.90 "Hg10 mi
4:47 AM62 °FLight rain. Mostly cloudy.No wind67%29.90 "Hg10 mi
3:47 AM63 °FLight rain. Overcast.3 mph58%29.92 "Hg10 mi
2:47 AM63 °FMostly cloudy.No wind58%29.93 "Hg10 mi
1:47 AM62 °FOvercast.No wind73%29.96 "Hg10 mi
12:47 AM62 °FMostly cloudy.No wind73%29.98 "Hg10 mi
11:47 PM
Jan 29
63 °FLight rain. Overcast.No wind68%30.01 "Hg10 mi
10:47 PM65 °FOvercast.3 mph56%30.01 "Hg10 mi
9:47 PM65 °FMostly cloudy.No wind54%30.02 "Hg10 mi
8:47 PM64 °FPassing clouds.No wind58%30.01 "Hg10 mi
7:47 PM66 °FMostly cloudy.No wind49%30.02 "Hg10 mi
6:47 PM66 °FPassing clouds.No wind50%30.01 "Hg10 mi
5:47 PM66 °FClear.No wind54%29.99 "Hg10 mi
4:47 PM68 °FPassing clouds.3 mph49%29.98 "Hg10 mi
3:47 PM72 °FSunny.No wind41%29.97 "Hg10 mi
2:47 PM74 °FSunny.No wind31%29.96 "Hg10 mi
1:47 PM74 °FSunny.No wind29%29.96 "Hg10 mi
12:47 PM74 °FSunny.No wind29%29.99 "Hg10 mi
11:47 AM74 °FSunny.No wind31%30.01 "Hg10 mi
10:47 AM71 °FSunny.3 mph35%30.05 "Hg10 mi
9:47 AM68 °FSunny.No wind40%30.06 "Hg10 mi
8:47 AM66 °FSunny.No wind47%30.04 "Hg8 mi
Weather by CustomWeather, © 2014

See weather overviewHow to use our weather pages